Year,Month,Day,Hour,Minute,Value (Times are PST for temperature in C)
2013,03,29,00,00,5.80
2013,03,29,00,01,5.80
2013,03,29,00,02,5.80
2013,03,29,00,03,5.80
2013,03,29,00,04,5.80
2013,03,29,00,05,5.80
2013,03,29,00,06,5.80
2013,03,29,00,07,5.80
2013,03,29,00,08,5.80
2013,03,29,00,09,5.80
2013,03,29,00,10,5.70
2013,03,29,00,11,5.70
2013,03,29,00,12,5.70
2013,03,29,00,13,5.70
2013,03,29,00,14,5.70
2013,03,29,00,15,5.70
2013,03,29,00,16,5.70
2013,03,29,00,17,5.70
2013,03,29,00,18,5.70
2013,03,29,00,19,5.70
2013,03,29,00,20,5.70
2013,03,29,00,21,5.70
2013,03,29,00,22,5.60
2013,03,29,00,23,5.60
2013,03,29,00,24,5.60
2013,03,29,00,25,5.60
2013,03,29,00,26,5.60
2013,03,29,00,27,5.60
2013,03,29,00,28,5.60
2013,03,29,00,29,5.60
2013,03,29,00,30,5.60
2013,03,29,00,31,5.60
2013,03,29,00,32,5.60
2013,03,29,00,33,5.60
2013,03,29,00,34,5.60
2013,03,29,00,35,5.50
2013,03,29,00,36,5.50
2013,03,29,00,37,5.50
2013,03,29,00,38,5.50
2013,03,29,00,39,5.50
2013,03,29,00,40,5.40
2013,03,29,00,41,5.40
2013,03,29,00,42,5.40
2013,03,29,00,43,5.40
2013,03,29,00,44,5.40
2013,03,29,00,45,5.40
2013,03,29,00,46,5.40
2013,03,29,00,47,5.40
2013,03,29,00,48,5.30
2013,03,29,00,49,5.30
2013,03,29,00,50,5.30
2013,03,29,00,51,5.30
2013,03,29,00,52,5.30
2013,03,29,00,53,5.30
2013,03,29,00,54,5.30
2013,03,29,00,55,5.30
2013,03,29,00,56,5.20
2013,03,29,00,57,5.20
2013,03,29,00,58,5.20
2013,03,29,00,59,5.20
2013,03,29,01,00,5.20
2013,03,29,01,01,5.20
2013,03,29,01,02,5.20
2013,03,29,01,03,5.20
2013,03,29,01,04,5.20
2013,03,29,01,05,5.20
2013,03,29,01,06,5.20
2013,03,29,01,07,5.20
2013,03,29,01,08,5.10
2013,03,29,01,09,5.10
2013,03,29,01,10,5.10
2013,03,29,01,11,5.10
2013,03,29,01,12,5.10
2013,03,29,01,13,5.10
2013,03,29,01,14,5.10
2013,03,29,01,15,5.10
2013,03,29,01,16,5.20
2013,03,29,01,17,5.20
2013,03,29,01,18,5.20
2013,03,29,01,19,5.20
2013,03,29,01,20,5.20
2013,03,29,01,21,5.20
2013,03,29,01,22,5.20
2013,03,29,01,23,5.20
2013,03,29,01,24,5.20
2013,03,29,01,25,5.20
2013,03,29,01,26,5.20
2013,03,29,01,27,5.20
2013,03,29,01,28,5.20
2013,03,29,01,29,5.20
2013,03,29,01,30,5.20
2013,03,29,01,31,5.20
2013,03,29,01,32,5.20
2013,03,29,01,33,5.20
2013,03,29,01,34,5.20
2013,03,29,01,35,5.20
2013,03,29,01,36,5.20
2013,03,29,01,37,5.10
2013,03,29,01,38,5.10
2013,03,29,01,39,5.10
2013,03,29,01,40,5.10
2013,03,29,01,41,5.10
2013,03,29,01,42,5.10
2013,03,29,01,43,5.10
2013,03,29,01,44,5.10
2013,03,29,01,45,5.10
2013,03,29,01,46,5.00
2013,03,29,01,47,5.00
2013,03,29,01,48,5.00
2013,03,29,01,49,5.00
2013,03,29,01,50,5.00
2013,03,29,01,51,5.00
2013,03,29,01,52,5.00
2013,03,29,01,53,4.90
2013,03,29,01,54,4.90
2013,03,29,01,55,4.90
2013,03,29,01,56,4.90
2013,03,29,01,57,4.90
2013,03,29,01,58,4.80
2013,03,29,01,59,4.80
2013,03,29,02,00,4.80
2013,03,29,02,01,4.80
2013,03,29,02,02,4.80
2013,03,29,02,03,4.80
2013,03,29,02,04,4.80
2013,03,29,02,05,4.80
2013,03,29,02,06,4.80
2013,03,29,02,07,4.70
2013,03,29,02,08,4.70
2013,03,29,02,09,4.70
2013,03,29,02,10,4.70
2013,03,29,02,11,4.70
2013,03,29,02,12,4.70
2013,03,29,02,13,4.70
2013,03,29,02,14,4.70
2013,03,29,02,15,4.70
2013,03,29,02,16,4.70
2013,03,29,02,17,4.70
2013,03,29,02,18,4.70
2013,03,29,02,19,4.70
2013,03,29,02,20,4.80
2013,03,29,02,21,4.80
2013,03,29,02,22,4.80
2013,03,29,02,23,4.80
2013,03,29,02,24,4.80
2013,03,29,02,25,4.80
2013,03,29,02,26,4.80
2013,03,29,02,27,4.80
2013,03,29,02,28,4.80
2013,03,29,02,29,4.80
2013,03,29,02,30,4.90
2013,03,29,02,31,4.90
2013,03,29,02,32,4.90
2013,03,29,02,33,4.90
2013,03,29,02,34,4.90
2013,03,29,02,35,4.90
2013,03,29,02,36,4.90
2013,03,29,02,37,4.90
2013,03,29,02,38,4.90
2013,03,29,02,39,4.90
2013,03,29,02,40,4.90
2013,03,29,02,41,4.90
2013,03,29,02,42,4.90
2013,03,29,02,43,4.90
2013,03,29,02,44,4.90
2013,03,29,02,45,4.90
2013,03,29,02,46,4.90
2013,03,29,02,47,4.90
2013,03,29,02,48,4.90
2013,03,29,02,49,4.90
2013,03,29,02,50,4.90
2013,03,29,02,51,4.90
2013,03,29,02,52,4.90
2013,03,29,02,53,4.90
2013,03,29,02,54,4.90
2013,03,29,02,55,4.90
2013,03,29,02,56,4.90
2013,03,29,02,57,4.90
2013,03,29,02,58,4.90
2013,03,29,02,59,4.90
2013,03,29,03,00,4.90
2013,03,29,03,01,4.90
2013,03,29,03,02,4.90
2013,03,29,03,03,4.90
2013,03,29,03,06,4.90
2013,03,29,03,07,4.90
2013,03,29,03,08,4.90
2013,03,29,03,09,4.90
2013,03,29,03,10,4.90
2013,03,29,03,11,4.90
2013,03,29,03,12,4.90
2013,03,29,03,13,4.90
2013,03,29,03,14,4.90
2013,03,29,03,15,4.90
2013,03,29,03,16,4.90
2013,03,29,03,17,4.90
2013,03,29,03,18,4.90
2013,03,29,03,19,4.90
2013,03,29,03,20,4.90
2013,03,29,03,21,4.90
2013,03,29,03,22,4.90
2013,03,29,03,23,4.90
2013,03,29,03,24,4.90
2013,03,29,03,25,4.90
2013,03,29,03,26,4.90
2013,03,29,03,27,4.90
2013,03,29,03,28,4.90
2013,03,29,03,29,4.80
2013,03,29,03,30,4.80
2013,03,29,03,31,4.80
2013,03,29,03,32,4.80
2013,03,29,03,33,4.80
2013,03,29,03,34,4.80
2013,03,29,03,35,4.80
2013,03,29,03,36,4.80
2013,03,29,03,37,4.80
2013,03,29,03,38,4.80
2013,03,29,03,39,4.70
2013,03,29,03,40,4.70
2013,03,29,03,41,4.70
2013,03,29,03,42,4.70
2013,03,29,03,43,4.70
2013,03,29,03,44,4.70
2013,03,29,03,45,4.70
2013,03,29,03,46,4.70
2013,03,29,03,47,4.80
2013,03,29,03,48,4.80
2013,03,29,03,49,4.80
2013,03,29,03,50,4.70
2013,03,29,03,51,4.70
2013,03,29,03,52,4.70
2013,03,29,03,53,4.70
2013,03,29,03,54,4.70
2013,03,29,03,55,4.70
2013,03,29,03,56,4.70
2013,03,29,03,57,4.60
2013,03,29,03,58,4.60
2013,03,29,03,59,4.60
2013,03,29,04,00,4.50
2013,03,29,04,01,4.50
2013,03,29,04,02,4.50
2013,03,29,04,03,4.40
2013,03,29,04,04,4.40
2013,03,29,04,05,4.40
2013,03,29,04,06,4.40
2013,03,29,04,07,4.30
2013,03,29,04,08,4.30
2013,03,29,04,09,4.30
2013,03,29,04,10,4.30
2013,03,29,04,11,4.30
2013,03,29,04,12,4.30
2013,03,29,04,13,4.20
2013,03,29,04,14,4.20
2013,03,29,04,15,4.20
2013,03,29,04,16,4.20
2013,03,29,04,17,4.20
2013,03,29,04,18,4.20
2013,03,29,04,19,4.20
2013,03,29,04,20,4.20
2013,03,29,04,21,4.20
2013,03,29,04,22,4.20
2013,03,29,04,23,4.20
2013,03,29,04,24,4.20
2013,03,29,04,25,4.20
2013,03,29,04,26,4.20
2013,03,29,04,27,4.20
2013,03,29,04,28,4.20
2013,03,29,04,29,4.20
2013,03,29,04,30,4.20
2013,03,29,04,31,4.20
2013,03,29,04,32,4.20
2013,03,29,04,33,4.20
2013,03,29,04,34,4.20
2013,03,29,04,35,4.20
2013,03,29,04,36,4.20
2013,03,29,04,37,4.20
2013,03,29,04,38,4.20
2013,03,29,04,39,4.20
2013,03,29,04,40,4.20
2013,03,29,04,41,4.20
2013,03,29,04,42,4.20
2013,03,29,04,43,4.30
2013,03,29,04,44,4.30
2013,03,29,04,45,4.20
2013,03,29,04,46,4.20
2013,03,29,04,47,4.20
2013,03,29,04,48,4.20
2013,03,29,04,49,4.10
2013,03,29,04,50,4.10
2013,03,29,04,51,4.10
2013,03,29,04,52,4.10
2013,03,29,04,53,4.10
2013,03,29,04,54,4.10
2013,03,29,04,55,4.10
2013,03,29,04,56,4.00
2013,03,29,04,57,4.00
2013,03,29,04,58,4.00
2013,03,29,04,59,4.00
2013,03,29,05,00,4.00
2013,03,29,05,01,4.00
2013,03,29,05,02,3.90
2013,03,29,05,03,3.90
2013,03,29,05,04,3.90
2013,03,29,05,05,3.90
2013,03,29,05,06,3.90
2013,03,29,05,07,3.90
2013,03,29,05,08,3.90
2013,03,29,05,09,3.90
2013,03,29,05,10,3.90
2013,03,29,05,11,3.90
2013,03,29,05,12,3.90
2013,03,29,05,13,3.90
2013,03,29,05,14,3.90
2013,03,29,05,15,3.90
2013,03,29,05,16,3.90
2013,03,29,05,17,3.90
2013,03,29,05,18,3.90
2013,03,29,05,19,3.90
2013,03,29,05,20,3.90
2013,03,29,05,21,3.90
2013,03,29,05,22,3.90
2013,03,29,05,23,3.90
2013,03,29,05,24,3.90
2013,03,29,05,25,3.90
2013,03,29,05,26,3.90
2013,03,29,05,27,3.90
2013,03,29,05,28,3.90
2013,03,29,05,29,3.90
2013,03,29,05,30,3.90
2013,03,29,05,31,3.90
2013,03,29,05,32,3.90
2013,03,29,05,33,3.90
2013,03,29,05,34,3.90
2013,03,29,05,35,3.90
2013,03,29,05,36,3.90
2013,03,29,05,37,3.90
2013,03,29,05,38,3.90
2013,03,29,05,39,3.90
2013,03,29,05,40,3.90
2013,03,29,05,41,3.90
2013,03,29,05,42,3.90
2013,03,29,05,43,3.90
2013,03,29,05,44,3.90
2013,03,29,05,45,3.90
2013,03,29,05,46,3.90
2013,03,29,05,47,3.90
2013,03,29,05,48,3.80
2013,03,29,05,49,3.80
2013,03,29,05,50,3.80
2013,03,29,05,51,3.80
2013,03,29,05,52,3.80
2013,03,29,05,53,3.80
2013,03,29,05,54,3.80
2013,03,29,05,55,3.80
2013,03,29,05,56,3.80
2013,03,29,05,57,3.80
2013,03,29,05,58,3.70
2013,03,29,05,59,3.70
2013,03,29,06,00,3.70
2013,03,29,06,01,3.70
2013,03,29,06,02,3.80
2013,03,29,06,03,3.80
2013,03,29,06,04,3.80
2013,03,29,06,05,3.80
2013,03,29,06,06,3.80
2013,03,29,06,07,3.80
2013,03,29,06,08,3.80
2013,03,29,06,09,3.80
2013,03,29,06,10,3.80
2013,03,29,06,11,3.80
2013,03,29,06,12,3.80
2013,03,29,06,13,3.80
2013,03,29,06,14,3.80
2013,03,29,06,15,3.80
2013,03,29,06,16,3.80
2013,03,29,06,17,3.80
2013,03,29,06,18,3.80
2013,03,29,06,19,3.80
2013,03,29,06,20,3.80
2013,03,29,06,21,3.80
2013,03,29,06,22,3.80
2013,03,29,06,23,3.80
2013,03,29,06,24,3.80
2013,03,29,06,25,3.80
2013,03,29,06,26,3.80
2013,03,29,06,27,3.80
2013,03,29,06,28,3.80
2013,03,29,06,29,3.80
2013,03,29,06,30,3.80
2013,03,29,06,31,3.80
2013,03,29,06,32,3.80
2013,03,29,06,33,3.80
2013,03,29,06,34,3.80
2013,03,29,06,35,3.80
2013,03,29,06,36,3.80
2013,03,29,06,37,3.80
2013,03,29,06,38,3.80
2013,03,29,06,39,3.80
2013,03,29,06,40,3.70
2013,03,29,06,41,3.70
2013,03,29,06,42,3.70
2013,03,29,06,43,3.70
2013,03,29,06,44,3.70
2013,03,29,06,45,3.60
2013,03,29,06,46,3.60
2013,03,29,06,47,3.60
2013,03,29,06,48,3.60
2013,03,29,06,49,3.60
2013,03,29,06,50,3.50
2013,03,29,06,51,3.50
2013,03,29,06,52,3.50
2013,03,29,06,53,3.50
2013,03,29,06,54,3.40
2013,03,29,06,55,3.40
2013,03,29,06,56,3.40
2013,03,29,06,57,3.40
2013,03,29,06,58,3.40
2013,03,29,06,59,3.40
2013,03,29,07,00,3.30
2013,03,29,07,01,3.30
2013,03,29,07,02,3.30
2013,03,29,07,03,3.30
2013,03,29,07,04,3.30
2013,03,29,07,05,3.30
2013,03,29,07,06,3.30
2013,03,29,07,07,3.30
2013,03,29,07,08,3.30
2013,03,29,07,09,3.30
2013,03,29,07,10,3.30
2013,03,29,07,11,3.40
2013,03,29,07,12,3.40
2013,03,29,07,13,3.40
2013,03,29,07,14,3.40
2013,03,29,07,15,3.40
2013,03,29,07,16,3.40
2013,03,29,07,17,3.40
2013,03,29,07,18,3.40
2013,03,29,07,19,3.40
2013,03,29,07,20,3.40
2013,03,29,07,21,3.40
2013,03,29,07,22,3.40
2013,03,29,07,23,3.40
2013,03,29,07,24,3.40
2013,03,29,07,25,3.40
2013,03,29,07,26,3.40
2013,03,29,07,27,3.50
2013,03,29,07,28,3.50
2013,03,29,07,29,3.50
2013,03,29,07,30,3.50
2013,03,29,07,31,3.50
2013,03,29,07,32,3.50
2013,03,29,07,33,3.60
2013,03,29,07,34,3.60
2013,03,29,07,35,3.60
2013,03,29,07,36,3.60
2013,03,29,07,37,3.60
2013,03,29,07,38,3.60
2013,03,29,07,39,3.60
2013,03,29,07,40,3.60
2013,03,29,07,41,3.60
2013,03,29,07,42,3.70
2013,03,29,07,43,3.70
2013,03,29,07,44,3.70
2013,03,29,07,45,3.70
2013,03,29,07,46,3.70
2013,03,29,07,47,3.70
2013,03,29,07,48,3.70
2013,03,29,07,49,3.70
2013,03,29,07,50,3.70
2013,03,29,07,51,3.70
2013,03,29,07,52,3.70
2013,03,29,07,53,3.70
2013,03,29,07,54,3.70
2013,03,29,07,55,3.70
2013,03,29,07,56,3.70
2013,03,29,07,57,3.70
2013,03,29,07,58,3.70
2013,03,29,07,59,3.70
2013,03,29,08,00,3.70
2013,03,29,08,01,3.70
2013,03,29,08,02,3.70
2013,03,29,08,03,3.70
2013,03,29,08,04,3.70
2013,03,29,08,05,3.70
2013,03,29,08,06,3.70
2013,03,29,08,07,3.70
2013,03,29,08,08,3.70
2013,03,29,08,09,3.70
2013,03,29,08,10,3.70
2013,03,29,08,11,3.70
2013,03,29,08,12,3.70
2013,03,29,08,13,3.70
2013,03,29,08,14,3.70
2013,03,29,08,15,3.80
2013,03,29,08,16,3.80
2013,03,29,08,17,3.80
2013,03,29,08,18,3.80
2013,03,29,08,19,3.80
2013,03,29,08,20,3.80
2013,03,29,08,21,3.80
2013,03,29,08,22,3.80
2013,03,29,08,23,3.90
2013,03,29,08,24,3.90
2013,03,29,08,25,3.90
2013,03,29,08,26,3.90
2013,03,29,08,27,3.90
2013,03,29,08,28,3.90
2013,03,29,08,29,3.90
2013,03,29,08,30,3.90
2013,03,29,08,31,3.90
2013,03,29,08,32,3.90
2013,03,29,08,33,3.90
2013,03,29,08,34,4.00
2013,03,29,08,35,4.00
2013,03,29,08,36,4.00
2013,03,29,08,37,4.00
2013,03,29,08,38,4.00
2013,03,29,08,39,4.00
2013,03,29,08,40,4.10
2013,03,29,08,41,4.10
2013,03,29,08,42,4.10
2013,03,29,08,43,4.10
2013,03,29,08,44,4.10
2013,03,29,08,45,4.20
2013,03,29,08,46,4.20
2013,03,29,08,47,4.20
2013,03,29,08,48,4.30
2013,03,29,08,49,4.30
2013,03,29,08,50,4.30
2013,03,29,08,51,4.30
2013,03,29,08,52,4.30
2013,03,29,08,53,4.40
2013,03,29,08,54,4.40
2013,03,29,08,55,4.40
2013,03,29,08,56,4.50
2013,03,29,08,57,4.50
2013,03,29,08,58,4.60
2013,03,29,08,59,4.60
2013,03,29,09,00,4.60
2013,03,29,09,01,4.60
2013,03,29,09,02,4.70
2013,03,29,09,03,4.70
2013,03,29,09,04,4.70
2013,03,29,09,05,4.80
2013,03,29,09,06,4.80
2013,03,29,09,07,4.80
2013,03,29,09,08,4.80
2013,03,29,09,09,4.90
2013,03,29,09,10,4.90
2013,03,29,09,11,4.90
2013,03,29,09,12,5.00
2013,03,29,09,13,5.00
2013,03,29,09,14,5.00
2013,03,29,09,15,5.10
2013,03,29,09,16,5.10
2013,03,29,09,17,5.10
2013,03,29,09,18,5.20
2013,03,29,09,19,5.20
2013,03,29,09,20,5.20
2013,03,29,09,21,5.30
2013,03,29,09,22,5.30
2013,03,29,09,23,5.40
2013,03,29,09,24,5.40
2013,03,29,09,25,5.50
2013,03,29,09,26,5.50
2013,03,29,09,27,5.60
2013,03,29,09,28,5.60
2013,03,29,09,29,5.60
2013,03,29,09,30,5.70
2013,03,29,09,31,5.70
2013,03,29,09,32,5.80
2013,03,29,09,33,5.80
2013,03,29,09,34,5.80
2013,03,29,09,35,5.90
2013,03,29,09,36,5.90
2013,03,29,09,37,5.90
2013,03,29,09,38,6.00
2013,03,29,09,39,6.00
2013,03,29,09,40,6.10
2013,03,29,09,41,6.10
2013,03,29,09,42,6.10
2013,03,29,09,43,6.20
2013,03,29,09,44,6.20
2013,03,29,09,45,6.20
2013,03,29,09,46,6.20
2013,03,29,09,47,6.30
2013,03,29,09,48,6.30
2013,03,29,09,49,6.30
2013,03,29,09,50,6.40
2013,03,29,09,51,6.40
2013,03,29,09,52,6.40
2013,03,29,09,53,6.40
2013,03,29,09,54,6.50
2013,03,29,09,55,6.50
2013,03,29,09,56,6.50
2013,03,29,09,57,6.60
2013,03,29,09,58,6.60
2013,03,29,09,59,6.60
2013,03,29,10,00,6.60
2013,03,29,10,01,6.60
2013,03,29,10,02,6.60
2013,03,29,10,03,6.70
2013,03,29,10,04,6.70
2013,03,29,10,05,6.70
2013,03,29,10,06,6.70
2013,03,29,10,07,6.70
2013,03,29,10,08,6.80
2013,03,29,10,09,6.80
2013,03,29,10,10,6.80
2013,03,29,10,11,6.90
2013,03,29,10,12,6.90
2013,03,29,10,13,6.90
2013,03,29,10,14,7.00
2013,03,29,10,15,7.00
2013,03,29,10,16,7.10
2013,03,29,10,17,7.10
2013,03,29,10,18,7.20
2013,03,29,10,19,7.20
2013,03,29,10,20,7.30
2013,03,29,10,21,7.30
2013,03,29,10,22,7.40
2013,03,29,10,23,7.40
2013,03,29,10,24,7.40
2013,03,29,10,25,7.50
2013,03,29,10,26,7.50
2013,03,29,10,27,7.60
2013,03,29,10,28,7.60
2013,03,29,10,29,7.70
2013,03,29,10,30,7.70
2013,03,29,10,31,7.80
2013,03,29,10,32,7.80
2013,03,29,10,33,7.90
2013,03,29,10,34,7.90
2013,03,29,10,35,7.90
2013,03,29,10,36,8.00
2013,03,29,10,37,8.00
2013,03,29,10,38,8.10
2013,03,29,10,39,8.10
2013,03,29,10,40,8.20
2013,03,29,10,41,8.20
2013,03,29,10,42,8.30
2013,03,29,10,43,8.30
2013,03,29,10,44,8.30
2013,03,29,10,45,8.40
2013,03,29,10,46,8.40
2013,03,29,10,47,8.40
2013,03,29,10,48,8.40
2013,03,29,10,49,8.50
2013,03,29,10,50,8.50
2013,03,29,10,51,8.60
2013,03,29,10,52,8.60
2013,03,29,10,53,8.70
2013,03,29,10,54,8.70
2013,03,29,10,55,8.80
2013,03,29,10,56,8.80
2013,03,29,10,57,8.90
2013,03,29,10,58,9.00
2013,03,29,10,59,9.00
2013,03,29,11,00,9.10
2013,03,29,11,01,9.10
2013,03,29,11,02,9.20
2013,03,29,11,03,9.20
2013,03,29,11,04,9.30
2013,03,29,11,05,9.30
2013,03,29,11,06,9.40
2013,03,29,11,07,9.50
2013,03,29,11,08,9.60
2013,03,29,11,09,9.60
2013,03,29,11,10,9.70
2013,03,29,11,11,9.70
2013,03,29,11,12,9.80
2013,03,29,11,13,9.80
2013,03,29,11,14,9.90
2013,03,29,11,15,9.90
2013,03,29,11,16,10.00
2013,03,29,11,17,10.00
2013,03,29,11,18,10.10
2013,03,29,11,19,10.10
2013,03,29,11,20,10.20
2013,03,29,11,21,10.30
2013,03,29,11,22,10.30
2013,03,29,11,23,10.40
2013,03,29,11,24,10.40
2013,03,29,11,25,10.50
2013,03,29,11,26,10.50
2013,03,29,11,27,10.60
2013,03,29,11,28,10.60
2013,03,29,11,29,10.70
2013,03,29,11,30,10.70
2013,03,29,11,31,10.70
2013,03,29,11,32,10.70
2013,03,29,11,33,10.80
2013,03,29,11,34,10.80
2013,03,29,11,35,10.80
2013,03,29,11,36,10.80
2013,03,29,11,37,10.80
2013,03,29,11,38,10.80
2013,03,29,11,39,10.80
2013,03,29,11,40,10.80
2013,03,29,11,41,10.80
2013,03,29,11,42,10.80
2013,03,29,11,43,10.90
2013,03,29,11,44,10.90
2013,03,29,11,45,10.90
2013,03,29,11,46,11.00
2013,03,29,11,47,11.00
2013,03,29,11,48,11.00
2013,03,29,11,49,11.10
2013,03,29,11,50,11.10
2013,03,29,11,51,11.10
2013,03,29,11,52,11.20
2013,03,29,11,53,11.20
2013,03,29,11,54,11.20
2013,03,29,11,55,11.20
2013,03,29,11,56,11.20
2013,03,29,11,57,11.30
2013,03,29,11,58,11.30
2013,03,29,11,59,11.30
2013,03,29,12,00,11.40
2013,03,29,12,01,11.40
2013,03,29,12,02,11.50
2013,03,29,12,03,11.50
2013,03,29,12,04,11.60
2013,03,29,12,05,11.60
2013,03,29,12,06,11.60
2013,03,29,12,07,11.70
2013,03,29,12,08,11.70
2013,03,29,12,09,11.70
2013,03,29,12,10,11.70
2013,03,29,12,11,11.80
2013,03,29,12,12,11.80
2013,03,29,12,13,11.80
2013,03,29,12,14,11.80
2013,03,29,12,15,11.80
2013,03,29,12,16,11.80
2013,03,29,12,17,11.80
2013,03,29,12,18,11.80
2013,03,29,12,19,11.80
2013,03,29,12,20,11.90
2013,03,29,12,21,11.90
2013,03,29,12,22,12.00
2013,03,29,12,23,12.00
2013,03,29,12,24,12.10
2013,03,29,12,25,12.10
2013,03,29,12,26,12.20
2013,03,29,12,27,12.20
2013,03,29,12,28,12.30
2013,03,29,12,29,12.30
2013,03,29,12,30,12.30
2013,03,29,12,31,12.40
2013,03,29,12,32,12.50
2013,03,29,12,33,12.50
2013,03,29,12,34,12.60
2013,03,29,12,35,12.60
2013,03,29,12,36,12.70
2013,03,29,12,37,12.70
2013,03,29,12,38,12.70
2013,03,29,12,39,12.70
2013,03,29,12,40,12.80
2013,03,29,12,41,12.80
2013,03,29,12,42,12.80
2013,03,29,12,43,12.80
2013,03,29,12,44,12.80
2013,03,29,12,45,12.90
2013,03,29,12,46,12.90
2013,03,29,12,47,13.00
2013,03,29,12,48,13.00
2013,03,29,12,49,13.00
2013,03,29,12,50,13.10
2013,03,29,12,51,13.10
2013,03,29,12,52,13.10
2013,03,29,12,53,13.20
2013,03,29,12,54,13.20
2013,03,29,12,55,13.20
2013,03,29,12,56,13.20
2013,03,29,12,57,13.30
2013,03,29,12,58,13.30
2013,03,29,12,59,13.30
2013,03,29,13,00,13.30
2013,03,29,13,01,13.30
2013,03,29,13,02,13.20
2013,03,29,13,03,13.20
2013,03,29,13,04,13.20
2013,03,29,13,05,13.20
2013,03,29,13,06,13.20
2013,03,29,13,07,13.20
2013,03,29,13,08,13.20
2013,03,29,13,09,13.20
2013,03,29,13,10,13.20
2013,03,29,13,11,13.30
2013,03,29,13,12,13.30
2013,03,29,13,13,13.30
2013,03,29,13,14,13.30
2013,03,29,13,15,13.40
2013,03,29,13,16,13.40
2013,03,29,13,17,13.50
2013,03,29,13,18,13.50
2013,03,29,13,19,13.50
2013,03,29,13,20,13.60
2013,03,29,13,21,13.60
2013,03,29,13,22,13.60
2013,03,29,13,23,13.70
2013,03,29,13,24,13.70
2013,03,29,13,25,13.70
2013,03,29,13,26,13.70
2013,03,29,13,27,13.70
2013,03,29,13,28,13.70
2013,03,29,13,29,13.70
2013,03,29,13,30,13.70
2013,03,29,13,31,13.70
2013,03,29,13,32,13.80
2013,03,29,13,33,13.80
2013,03,29,13,34,13.70
2013,03,29,13,35,13.80
2013,03,29,13,36,13.80
2013,03,29,13,37,13.80
2013,03,29,13,38,13.80
2013,03,29,13,39,13.80
2013,03,29,13,40,13.80
2013,03,29,13,41,13.90
2013,03,29,13,42,13.90
2013,03,29,13,43,13.90
2013,03,29,13,44,14.00
2013,03,29,13,45,14.10
2013,03,29,13,46,14.10
2013,03,29,13,47,14.20
2013,03,29,13,48,14.20
2013,03,29,13,49,14.20
2013,03,29,13,50,14.20
2013,03,29,13,51,14.20
2013,03,29,13,52,14.30
2013,03,29,13,53,14.30
2013,03,29,13,54,14.30
2013,03,29,13,55,14.30
2013,03,29,13,56,14.30
2013,03,29,13,57,14.40
2013,03,29,13,58,14.40
2013,03,29,13,59,14.40
2013,03,29,14,00,14.40
2013,03,29,14,01,14.40
2013,03,29,14,02,14.40
2013,03,29,14,03,14.40
2013,03,29,14,04,14.40
2013,03,29,14,05,14.40
2013,03,29,14,06,14.40
2013,03,29,14,07,14.40
2013,03,29,14,08,14.50
2013,03,29,14,09,14.50
2013,03,29,14,10,14.50
2013,03,29,14,11,14.60
2013,03,29,14,12,14.60
2013,03,29,14,13,14.70
2013,03,29,14,14,14.70
2013,03,29,14,15,14.80
2013,03,29,14,16,14.80
2013,03,29,14,17,14.80
2013,03,29,14,18,14.80
2013,03,29,14,19,14.80
2013,03,29,14,20,14.80
2013,03,29,14,21,14.80
2013,03,29,14,22,14.80
2013,03,29,14,23,14.80
2013,03,29,14,24,14.80
2013,03,29,14,25,14.80
2013,03,29,14,26,14.80
2013,03,29,14,27,14.80
2013,03,29,14,28,14.90
2013,03,29,14,29,14.90
2013,03,29,14,30,15.00
2013,03,29,14,31,15.00
2013,03,29,14,32,15.00
2013,03,29,14,33,15.00
2013,03,29,14,34,15.00
2013,03,29,14,35,15.00
2013,03,29,14,36,15.00
2013,03,29,14,37,15.00
2013,03,29,14,38,15.00
2013,03,29,14,39,15.00
2013,03,29,14,40,15.00
2013,03,29,14,41,15.10
2013,03,29,14,42,15.10
2013,03,29,14,43,15.20
2013,03,29,14,44,15.20
2013,03,29,14,45,15.30
2013,03,29,14,46,15.30
2013,03,29,14,47,15.30
2013,03,29,14,48,15.30
2013,03,29,14,49,15.30
2013,03,29,14,50,15.30
2013,03,29,14,51,15.30
2013,03,29,14,52,15.40
2013,03,29,14,53,15.40
2013,03,29,14,54,15.40
2013,03,29,14,55,15.50
2013,03,29,14,56,15.60
2013,03,29,14,57,15.60
2013,03,29,14,58,15.60
2013,03,29,14,59,15.60
2013,03,29,15,00,15.70
2013,03,29,15,01,15.70
2013,03,29,15,02,15.70
2013,03,29,15,03,15.70
2013,03,29,15,04,15.80
2013,03,29,15,05,15.80
2013,03,29,15,06,15.80
2013,03,29,15,07,15.90
2013,03,29,15,08,15.90
2013,03,29,15,09,16.00
2013,03,29,15,10,16.00
2013,03,29,15,11,16.10
2013,03,29,15,12,16.10
2013,03,29,15,13,16.20
2013,03,29,15,14,16.20
2013,03,29,15,15,16.30
2013,03,29,15,16,16.30
2013,03,29,15,17,16.30
2013,03,29,15,18,16.30
2013,03,29,15,19,16.30
2013,03,29,15,20,16.40
2013,03,29,15,21,16.50
2013,03,29,15,22,16.50
2013,03,29,15,23,16.50
2013,03,29,15,24,16.60
2013,03,29,15,25,16.60
2013,03,29,15,26,16.60
2013,03,29,15,27,16.70
2013,03,29,15,28,16.70
2013,03,29,15,29,16.80
2013,03,29,15,30,16.80
2013,03,29,15,31,16.90
2013,03,29,15,32,16.90
2013,03,29,15,33,16.90
2013,03,29,15,34,16.90
2013,03,29,15,35,16.90
2013,03,29,15,36,16.90
2013,03,29,15,37,16.90
2013,03,29,15,38,16.90
2013,03,29,15,39,16.90
2013,03,29,15,40,16.90
2013,03,29,15,41,16.90
2013,03,29,15,42,16.90
2013,03,29,15,43,16.90
2013,03,29,15,44,16.90
2013,03,29,15,45,16.90
2013,03,29,15,46,17.00
2013,03,29,15,47,17.00
2013,03,29,15,48,17.10
2013,03,29,15,49,17.20
2013,03,29,15,50,17.20
2013,03,29,15,51,17.20
2013,03,29,15,52,17.30
2013,03,29,15,53,17.30
2013,03,29,15,54,17.30
2013,03,29,15,55,17.30
2013,03,29,15,56,17.30
2013,03,29,15,57,17.30
2013,03,29,15,58,17.30
2013,03,29,15,59,17.30
2013,03,29,16,00,17.40
2013,03,29,16,01,17.40
2013,03,29,16,02,17.40
2013,03,29,16,03,17.40
2013,03,29,16,04,17.40
2013,03,29,16,05,17.30
2013,03,29,16,06,17.30
2013,03,29,16,07,17.30
2013,03,29,16,08,17.30
2013,03,29,16,09,17.40
2013,03,29,16,10,17.40
2013,03,29,16,11,17.50
2013,03,29,16,12,17.50
2013,03,29,16,13,17.40
2013,03,29,16,14,17.30
2013,03,29,16,15,17.30
2013,03,29,16,16,17.20
2013,03,29,16,17,17.20
2013,03,29,16,18,17.30
2013,03,29,16,19,17.40
2013,03,29,16,20,17.50
2013,03,29,16,21,17.60
2013,03,29,16,22,17.70
2013,03,29,16,23,17.80
2013,03,29,16,24,17.90
2013,03,29,16,25,17.90
2013,03,29,16,26,17.90
2013,03,29,16,27,18.00
2013,03,29,16,28,18.10
2013,03,29,16,29,18.10
2013,03,29,16,30,18.10
2013,03,29,16,31,18.10
2013,03,29,16,32,18.00
2013,03,29,16,33,18.00
2013,03,29,16,34,17.90
2013,03,29,16,35,17.80
2013,03,29,16,36,17.80
2013,03,29,16,37,17.90
2013,03,29,16,38,17.90
2013,03,29,16,39,17.90
2013,03,29,16,40,18.00
2013,03,29,16,41,18.10
2013,03,29,16,42,18.10
2013,03,29,16,43,18.10
2013,03,29,16,44,18.00
2013,03,29,16,45,17.90
2013,03,29,16,46,17.90
2013,03,29,16,47,17.80
2013,03,29,16,48,17.80
2013,03,29,16,49,17.80
2013,03,29,16,50,17.60
2013,03,29,16,51,17.50
2013,03,29,16,52,17.40
2013,03,29,16,53,17.40
2013,03,29,16,54,17.30
2013,03,29,16,55,17.40
2013,03,29,16,56,17.40
2013,03,29,16,57,17.40
2013,03,29,16,58,17.40
2013,03,29,16,59,17.40
2013,03,29,17,00,17.40
2013,03,29,17,01,17.40
2013,03,29,17,02,17.50
2013,03,29,17,03,17.60
2013,03,29,17,04,17.60
2013,03,29,17,05,17.60
2013,03,29,17,06,17.70
2013,03,29,17,07,17.70
2013,03,29,17,08,17.70
2013,03,29,17,09,17.70
2013,03,29,17,10,17.60
2013,03,29,17,11,17.50
2013,03,29,17,12,17.40
2013,03,29,17,13,17.30
2013,03,29,17,14,17.20
2013,03,29,17,15,17.20
2013,03,29,17,16,17.10
2013,03,29,17,17,17.10
2013,03,29,17,18,17.10
2013,03,29,17,19,17.10
2013,03,29,17,20,17.10
2013,03,29,17,21,17.00
2013,03,29,17,22,17.00
2013,03,29,17,23,16.90
2013,03,29,17,24,16.90
2013,03,29,17,25,16.80
2013,03,29,17,26,16.80
2013,03,29,17,27,16.70
2013,03,29,17,28,16.70
2013,03,29,17,29,16.60
2013,03,29,17,30,16.50
2013,03,29,17,31,16.40
2013,03,29,17,32,16.30
2013,03,29,17,33,16.20
2013,03,29,17,34,16.10
2013,03,29,17,35,16.00
2013,03,29,17,36,15.90
2013,03,29,17,37,15.80
2013,03,29,17,38,15.70
2013,03,29,17,39,15.70
2013,03,29,17,40,15.60
2013,03,29,17,41,15.60
2013,03,29,17,42,15.50
2013,03,29,17,43,15.50
2013,03,29,17,44,15.40
2013,03,29,17,45,15.40
2013,03,29,17,46,15.30
2013,03,29,17,47,15.30
2013,03,29,17,48,15.20
2013,03,29,17,49,15.10
2013,03,29,17,50,15.10